Location: Bright Skies Observatory
(38.9689°N, 77.0681°W)
Time: 22:43:36
(UTC-04:00)

Daily predictions for brighter satellites

Satellite Brightness Start Highest point End
(mag) Time Altitude Azimuth Time Altitude Azimuth Time Altitude Azimuth
Cosmos 2228 Rocket 3.2 21:05:16 10° N 21:09:42 61° E 21:14:09 10° SSE
SPOT 5 3.9 21:07:27 10° SE 21:11:19 29° ENE 21:15:23 10° N
ALOS 3.2 21:08:30 10° S 21:13:02 51° W 21:17:36 10° NNW
Cosmos 1743 Rocket 3.6 21:12:28 10° S 21:16:54 67° E 21:21:21 10° NNE
Cosmos 1500 Rocket 3.7 21:19:28 10° S 21:23:42 52° E 21:27:59 10° NNE
USA 186 3.7 21:21:59 10° SSW 21:23:49 19° W 21:25:41 10° NW
H-2A R/B 4.3 21:23:00 10° ENE 21:24:06 11° ENE 21:25:11 10° NE
Cosmos 2221 4.3 21:21:12 10° NNW 21:25:01 32° W 21:28:48 10° SSW
Cosmos 2219 4.5 21:21:19 10° SSE 21:25:28 21° E 21:29:37 10° NE
deb Chang Zheng 4 3.5 21:22:25 10° NNE 21:26:46 77° ESE 21:31:06 10° S
BREEZE M DEB (TANK) 3.1 21:28:16 10° W 21:29:54 21° SSW 21:32:05 11° SSE
Cosmos 1441 Rocket 3.1 21:30:55 10° S 21:34:42 78° E 21:38:28 10° NNE
ATLAS CENTAUR R/B 2.3 21:32:12 10° NW 21:36:32 46° WSW 21:40:29 10° S
CZ-2C R/B 1.2 21:36:42 10° S 21:38:20 33° W 21:39:58 10° NNW
Delta 2 Rocket 3.8 21:35:37 10° SW 21:38:40 28° SSE 21:40:48 15° ESE
Cosmos 1538 Rocket 4.1 21:34:38 10° NNW 21:39:59 85° WSW 21:45:21 10° SSE
PSLV R/B 3.7 21:37:46 15° SE 21:40:02 43° ENE 21:42:58 10° N
Cosmos 2322 Rocket 2.4 21:35:04 10° NNW 21:40:41 74° WSW 21:46:15 10° SSE
Cosmos 1680 Rocket 4.4 21:35:58 10° N 21:40:43 33° ENE 21:44:32 15° ESE
Cosmos 923 Rocket 4.5 21:39:03 10° N 21:44:05 46° ENE 21:48:00 16° SE
Cosmos 1726 4.3 21:44:54 10° NE 21:46:29 12° ENE 21:47:47 11° E
USA 245 3.9 21:48:58 18° ESE 21:49:50 21° ENE 21:51:49 10° NNE
SL-16 R/B 2.5 21:44:19 10° NNW 21:49:57 67° WSW 21:55:22 11° S
Cosmos 1980 Rocket 4.3 21:46:15 10° NW 21:50:35 23° W 21:54:54 10° SSW
Cosmos 304 Rocket 4.4 21:46:40 10° N 21:51:14 41° ENE 21:54:23 18° SE
Cosmos 2360 Rocket 2.6 21:46:07 10° NNW 21:51:36 49° ENE 21:55:40 18° SE
Cosmos 1515 Rocket 3.7 21:48:02 10° N 21:52:29 75° W 21:56:52 10° S
Cosmos 1939 Rocket 3.3 21:48:51 10° S 21:52:45 57° W 21:56:38 10° NNW
Cosmos 2315 Rocket 4.5 21:47:07 10° N 21:53:01 43° ENE 21:57:24 17° SE
Cosmos 1908 3.2 21:50:42 10° N 21:54:36 72° E 21:57:31 17° SSE
AVUM R/B 2.2 21:52:34 11° SSW 21:54:38 74° ESE 21:57:04 10° NNE
CZ-4B R/B 3.8 21:49:39 10° NNE 21:54:47 49° E 21:59:36 11° S
Cosmos 2266 Rocket 4.0 21:50:58 10° S 21:57:17 80° E 22:03:32 10° N
USA 229 DEB 3.9 21:56:46 10° SW 22:03:42 79° NW 22:10:44 10° NNE
USA 229 3.9 21:56:52 10° SW 22:03:48 79° NW 22:10:50 10° NNE
Meteor 2-20 Rocket 4.4 21:59:47 10° S 22:05:57 87° E 22:12:08 10° N
Cosmos 1633 Rocket 4.3 22:05:13 20° ESE 22:06:29 23° E 22:09:59 10° NE
Cosmos 773 Rocket 4.0 22:01:37 10° NNW 22:06:50 85° WSW 22:10:40 19° SSE
Sich 1 4.3 22:05:33 21° ESE 22:07:00 25° E 22:10:37 10° NE
MetOp-B 4.1 22:06:25 16° SSE 22:10:42 89° WSW 22:16:05 10° NNW
Cosmos 2151 2.9 22:10:13 14° S 22:13:49 87° E 22:18:02 10° N
Cosmos 1674 3.2 22:10:18 10° SSW 22:14:03 59° W 22:17:52 10° N
Terra 3.3 22:12:30 18° ESE 22:14:34 24° ENE 22:18:20 10° NNE
Cosmos 2227 Rocket 4.0 22:15:59 13° E 22:15:59 13° E 22:18:20 10° ENE
CZ-4 SHROUD 4.1 22:14:01 19° SSW 22:15:56 45° W 22:18:59 10° NNW
Cosmos 1437 Rocket 3.7 22:14:03 10° NNW 22:17:40 43° W 22:20:37 15° SSW
Cosmos 1833 4.4 22:12:24 10° SSW 22:18:06 73° WNW 22:23:48 10° NNE
Cosmos 1805 Rocket 3.7 22:17:06 24° SSE 22:19:35 57° E 22:23:57 10° NNE
Cosmos 2333 Rocket 4.1 22:17:56 10° N 22:21:44 18° NE 22:25:11 11° E
Cosmos 1151 Rocket 3.5 22:18:14 10° NNW 22:22:29 59° W 22:25:31 18° S
GPS 2-04 Rocket1 4.5 22:19:59 10° WSW 22:23:10 20° SSW 22:23:58 19° S
NOSS 3-1 (A) 3.8 22:20:06 20° SSE 22:23:30 38° ESE 22:29:14 10° NE
Meteor 1-4 Rocket 4.2 22:20:40 10° NNE 22:23:37 21° ENE 22:24:10 21° E
Cosmos 1300 3.1 22:20:20 10° N 22:24:03 45° E 22:25:08 35° SE
CZ-4 R/B 3.8 22:20:23 10° NNE 22:25:20 69° ESE 22:28:34 21° S
CZ-4C R/B 3.5 22:31:52 40° ESE 22:32:32 45° ENE 22:35:53 10° N
COSMOS 2428 3.1 22:28:22 10° NNW 22:33:55 52° ENE 22:36:34 29° SE
H-2A R/B 4.4 22:32:31 10° SW 22:35:50 20° W 22:39:10 10° NW
Cosmos 1328 4.4 22:34:24 17° SSW 22:37:15 55° W 22:41:09 10° N
Cosmos 1707 Rocket 3.5 22:34:46 10° N 22:39:08 74° E 22:40:39 40° SSE
Cosmos 1666 Rocket 3.4 22:39:51 36° S 22:41:35 74° E 22:46:00 10° N
Cosmos 2297 Rocket 3.9 22:43:59 16° E 22:43:59 16° E 22:46:39 10° ENE
DELTA 2 R/B (1) 3.5 22:37:53 10° W 22:43:25 73° SSW 22:45:57 33° ESE
Cosmos 2298 Rocket 4.0 22:41:52 27° S 22:44:46 67° ESE 22:50:03 10° NNE
Cosmos 2058 3.1 22:42:56 25° SSW 22:45:10 66° W 22:49:16 10° N
Cosmos 2112 Rocket 4.1 22:40:08 10° NNW 22:45:22 74° WSW 22:47:48 32° S
Meteor 2-11 Rocket 4.4 22:39:25 10° N 22:45:36 81° E 22:48:44 31° SSE
ATLAS 2AS CENTAUR R/B 3.9 22:45:16 25° ESE 22:46:14 25° ESE 22:52:21 10° NE
Cosmos 1455 4.0 22:44:12 10° NNE 22:46:54 19° ENE 22:46:54 19° ENE
YAOGAN 6 4.0 22:46:03 22° SW 22:47:45 32° W 22:51:03 10° NNW
Cosmos 2219 Rocket 3.0 22:49:24 10° N 22:54:37 38° ENE 22:56:41 28° ESE
Cosmos 1470 Rocket 4.1 22:54:47 38° E 22:54:56 38° E 22:58:57 10° NNE
Cosmos 2237 4.2 22:49:52 10° NNW 22:55:38 84° ENE 22:57:51 39° SSE
Cosmos 1933 Rocket 4.2 22:56:12 38° E 22:56:27 39° E 23:00:37 10° NNE
Cosmos 1937 Rocket 3.7 22:56:43 42° SSE 22:58:00 52° ESE 23:03:03 10° NNE
ARGOS 3.6 22:55:49 27° SSW 22:58:39 55° W 23:03:58 10° NNW
Cosmos 220 Rocket 4.2 23:02:18 49° ESE 23:02:21 49° ESE 23:06:37 10° NNE
H-2A R/B 2.1 23:00:41 42° SSE 23:02:34 81° ENE 23:07:59 10° N
BREEZE-M DEB (TANK) 4.3 23:04:38 10° NNW 23:06:23 20° NNE 23:07:06 18° NE
SL-14 R/B 3.8 23:05:20 37° SW 23:06:35 54° W 23:10:30 10° N
Cosmos 1703 3.0 23:07:24 76° SE 23:07:36 80° E 23:11:32 10° N
IGS 5A 3.3 23:07:26 64° SE 23:07:57 74° ENE 23:12:08 10° N
Cosmos 2219 4.0 23:03:35 10° SW 23:09:10 52° WNW 23:14:48 10° NNE
ATLAS 3B R/B 4.4 23:04:22 10° NNW 23:09:58 24° NE 23:15:00 11° E
NOSS 3-1 (C) 3.5 23:05:50 10° SW 23:11:40 74° NW 23:18:09 10° NNE
Cosmos 990 Rocket 4.1 23:13:26 49° ESE 23:13:54 51° ESE 23:18:53 10° NNE
Cosmos 1271 Rocket 2.5 23:10:58 10° N 23:14:47 88° W 23:14:50 87° SSW
NOSS 0 Rocket 4.3 23:09:17 10° NNW 23:15:18 53° ENE 23:17:23 37° ESE
Cosmos 2242 Rocket 3.6 23:11:15 10° N 23:15:43 75° W 23:16:33 57° SSW
Cosmos 2333 4.1 23:11:01 10° NNW 23:16:46 88° WSW 23:18:26 49° SSE
Cosmos 2237 Rocket 2.9 23:16:14 10° N 23:21:39 42° ENE 23:23:15 35° E
Cosmos 1726 3.1 23:18:31 10° NNW 23:22:02 38° W 23:22:28 37° WSW
Cosmos 2082 3.9 23:21:49 48° SE 23:22:27 50° ESE 23:27:57 10° NNE
SAR-Lupe-2 3.7 23:22:48 68° WNW 23:22:48 68° WNW 23:26:07 10° NNW
Iridium 2 4.1 23:28:43 53° W 23:28:53 54° W 23:32:40 10° N
Cosmos 2360 Rocket 3.9 23:30:59 10° NW 23:35:11 22° W 23:37:27 17° SW
Cosmos 1898 Rocket 4.3 23:33:17 23° SW 23:36:15 48° WNW 23:41:17 10° N
Cosmos 1862 Rocket 3.4 23:33:01 10° N 23:37:19 83° ENE 23:37:19 83° ENE
CARTOSAT-1 4.3 23:37:19 40° WSW 23:37:47 41° W 23:41:54 10° NNW
Cosmos 1125 Rocket 4.2 23:42:38 38° E 23:42:38 38° E 23:47:05 10° NE
CZ-4B R/B 4.2 23:43:58 12° NE 23:43:58 12° NE 23:44:52 10° NE
Spot 4 4.2 23:44:36 49° SW 23:45:13 53° W 23:49:59 10° NNW
Terra 2.9 23:51:23 32° WSW 23:52:06 34° W 23:56:26 10° NNW
Cosmos 292 Rocket 4.3 23:49:39 10° NNW 23:54:13 47° WSW 23:54:22 46° WSW
